EW8081 Weather Reports


Display with metric or nautical units.
time (UTC)temp
F
wind
direction
speed
MPH
gust
MPH
rain 1hr
in
rain 24hr
in
rain mn
in
humidity
%
barometer
mb
20260510154542 58 276 1.0 6.0 0.00 0.00 0.00 88 1029.2
20260510153040 58 287 2.0 7.0 0.00 0.00 0.00 88 1029.2
20260510151540 58 307 3.0 8.0 0.00 0.00 0.00 88 1029.2
20260510150037 57 305 2.0 4.0 0.00 0.00 0.00 88 1029.4
20260510144532 57 291 0.0 4.0 0.00 0.00 0.00 87 1029.5
20260510143035 58 294 2.0 5.0 0.00 0.00 0.00 87 1029.5
20260510141529 58 291 1.0 5.0 0.00 0.00 0.00 86 1029.5
20260510140025 58 290 3.0 7.0 0.00 0.00 0.00 86 1029.6
20260510134525 59 295 2.0 5.0 0.00 0.00 0.00 85 1029.5
20260510133036 59 295 1.0 7.0 0.00 0.00 0.00 85 1029.5
20260510131522 59 290 1.0 5.0 0.00 0.00 0.00 86 1029.6
20260510130022 59 299 2.0 6.0 0.00 0.00 0.00 86 1029.5
20260510124521 59 311 2.0 5.0 0.00 0.00 0.00 86 1029.7
20260510123021 60 301 3.0 5.0 0.00 0.00 0.00 86 1029.8
20260510121520 60 299 2.0 5.0 0.00 0.00 0.00 86 1030.0
20260510120023 60 317 2.0 5.0 0.00 0.00 0.00 86 1030.1
20260510114523 60 291 1.0 3.0 0.00 0.00 0.00 85 1030.0
20260510113021 60 303 0.0 4.0 0.00 0.00 0.00 84 1030.1
20260510111517 60 301 1.0 3.0 0.00 0.00 0.00 83 1029.9
20260510110020 60 297 1.0 5.0 0.00 0.00 0.00 82 1029.9
20260510104613 61 303 1.0 4.0 0.00 0.00 0.00 81 1029.7
20260510103013 61 307 1.0 4.0 0.00 0.00 0.00 80 1029.7
20260510101511 62 276 2.0 8.0 0.00 0.00 0.00 79 1029.6
20260510100011 62 263 0.0 3.0 0.00 0.00 0.00 77 1029.6
20260510094510 63 259 1.0 5.0 0.00 0.00 0.00 76 1029.4
20260510093008 64 245 1.0 11.0 0.00 0.00 0.00 75 1029.2
20260510091510 64 245 2.0 11.0 0.00 0.00 0.00 75 1029.1
20260510090005 64 212 2.0 12.0 0.00 0.00 0.00 75 1028.9
20260510084503 64 205 3.0 10.0 0.00 0.00 0.00 75 1028.9
20260510083002 64 247 4.0 11.0 0.00 0.00 0.00 77 1028.6
20260510081605 64 201 4.0 9.0 0.00 0.00 0.00 76 1028.6
20260510080059 65 274 4.0 10.0 0.00 0.00 0.00 76 1028.3
20260510074558 65 234 2.0 9.0 0.00 0.00 0.00 76 1028.1
20260510073112 65 227 2.0 9.0 0.00 0.00 0.00 76 1028.1
20260510071605 65 249 5.0 9.0 0.00 0.00 0.00 75 1027.9
20260510070053 66 242 2.0 10.0 0.00 0.00 0.00 74 1027.7
20260510064559 67 207 2.0 12.0 0.00 0.00 0.00 72 1027.6
20260510063052 69 217 4.0 10.0 0.00 0.00 0.00 69 1027.5
20260510061551 72 217 6.0 11.0 0.00 0.00 0.00 63 1027.5
20260510060051 72 232 6.0 17.0 0.00 0.00 0.00 65 1027.3
20260510054550 75 216 5.0 13.0 0.00 0.00 0.00 60 1027.1
20260510053049 73 201 4.0 11.0 0.00 0.00 0.00 62 1027.0
20260510051549 76 205 4.0 10.0 0.00 0.00 0.00 56 1026.8
20260510050046 77 199 5.0 11.0 0.00 0.00 0.00 53 1026.8
20260510044550 78 200 5.0 11.0 0.00 0.00 0.00 51 1026.6
20260510043048 77 218 4.0 12.0 0.00 0.00 0.00 53 1026.6
20260510041548 78 215 6.0 16.0 0.00 0.00 0.00 54 1026.7
20260510040048 79 198 5.0 11.0 0.00 0.00 0.00 50 1026.7
20260510034541 78 164 4.0 11.0 0.00 0.00 0.00 53 1026.6
20260510033042 78 200 4.0 10.0 0.00 0.00 0.00 49 1026.4
20260510031550 79 210 4.0 8.0 0.00 0.00 0.00 49 1026.6
20260510030037 78 215 3.0 7.0 0.00 0.00 0.00 47 1026.6
20260510024536 78 224 4.0 9.0 0.00 0.00 0.00 47 1026.6
20260510023035 79 194 2.0 7.0 0.00 0.00 0.00 48 1026.6
20260510021538 80 251 4.0 7.0 0.00 0.00 0.00 44 1026.7
20260510020033 78 192 4.0 9.0 0.00 0.00 0.00 46 1027.0
20260510014527 78 259 1.0 8.0 0.00 0.00 0.00 47 1027.2
20260510013025 76 288 2.0 4.0 0.00 0.00 0.00 50 1027.3
20260510011525 76 228 2.0 8.0 0.00 0.00 0.00 49 1027.5
20260510010022 76 240 2.0 8.0 0.00 0.00 0.00 49 1027.6
20260510004519 74 289 2.0 7.0 0.00 0.00 0.00 50 1027.6
20260510003016 72 313 4.0 9.0 0.00 0.00 0.00 52 1027.7
20260510001513 71 293 6.0 9.0 0.00 0.00 0.00 54 1027.5
20260510000015 70 295 4.0 10.0 0.00 0.00 0.00 56 1027.4
20260509234504 68 269 4.0 11.0 0.00 0.00 0.00 59 1027.4
20260509233001 68 286 2.0 9.0 0.00 0.00 0.00 60 1027.3
20260509231558 66 243 6.0 12.0 0.00 0.00 0.00 63 1027.4
20260509230053 65 291 7.0 11.0 0.00 0.00 0.00 65 1027.3
20260509224557 63 318 6.0 13.0 0.00 0.00 0.00 67 1027.1
20260509223047 62 303 5.0 13.0 0.00 0.00 0.00 70 1027.1
20260509221554 59 297 7.0 13.0 0.00 0.00 0.00 75 1027.0
20260509220037 56 320 7.0 12.0 0.00 0.00 0.00 79 1027.0
20260509214533 55 310 7.0 12.0 0.00 0.00 0.00 81 1026.9
20260509213032 55 293 6.0 14.0 0.00 0.00 0.00 82 1026.7
20260509211530 54 307 6.0 13.0 0.00 0.00 0.00 82 1026.6
20260509210032 54 293 7.0 15.0 0.00 0.00 0.00 82 1026.1
20260509204524 54 304 9.0 14.0 0.00 0.00 0.00 82 1026.1
20260509203020 55 306 8.0 13.0 0.00 0.00 0.00 81 1025.8
20260509201519 55 326 7.0 15.0 0.00 0.00 0.00 81 1025.6
20260509200016 55 291 7.0 13.0 0.00 0.00 0.00 80 1025.5
20260509194513 56 303 7.0 14.0 0.00 0.00 0.00 79 1025.2
20260509193014 56 301 8.0 15.0 0.00 0.00 0.00 78 1025.1
20260509191609 57 290 7.0 13.0 0.00 0.00 0.00 78 1024.9
20260509190007 57 286 7.0 13.0 0.00 0.00 0.00 78 1024.8
20260509184505 56 330 8.0 14.0 0.00 0.00 0.00 78 1024.8
20260509183003 56 300 8.0 12.0 0.00 0.00 0.00 78 1024.7
20260509181501 56 300 5.0 11.0 0.00 0.00 0.00 79 1024.6
20260509174556 56 292 5.0 11.0 0.00 0.00 0.00 80 1024.7
20260509173053 56 307 6.0 9.0 0.00 0.00 0.00 79 1024.5
20260509171554 56 299 5.0 9.0 0.00 0.00 0.00 79 1024.6
20260509170054 56 313 5.0 10.0 0.00 0.00 0.00 79 1024.6
20260509164551 56 318 5.0 10.0 0.00 0.00 0.00 80 1024.5
20260509163045 56 289 4.0 8.0 0.00 0.00 0.00 80 1024.5
20260509161552 56 299 3.0 10.0 0.00 0.00 0.00 79 1024.5
20260509160040 56 297 4.0 9.0 0.00 0.00 0.00 79 1024.6